GW0996 Weather Reports


time (UTC)temp
C
wind
direction
speed
KPH
gust
KPH
rain 1hr
cm
rain 24hr
cm
rain mn
cm
humidity
%
barometer
mb
20260906145150 35 352 0.0 3.2 0.00 0.00 0.00 31 1017.8
20260906144145 35 324 0.0 1.6 0.00 0.00 0.00 32 1017.8
20260906143644 35 311 0.0 1.6 0.00 0.00 0.00 32 1017.8
20260906143142 35 332 0.0 4.8 0.00 0.00 0.00 34 1017.8
20260906142141 35 313 0.0 9.7 0.00 0.00 0.00 33 1018.0
20260906141653 35 322 0.0 9.7 0.00 0.00 0.00 33 1018.0
20260906141133 35 307 0.0 4.8 0.00 0.00 0.00 33 1017.9
20260906140627 35 333 1.6 3.2 0.00 0.00 0.00 31 1018.0
20260906140129 36 121 0.0 4.8 0.00 0.00 0.00 33 1017.9
20260906135626 36 296 0.0 4.8 0.00 0.00 0.00 31 1018.2
20260906135130 36 126 0.0 1.6 0.00 0.00 0.00 31 1018.1
20260906134128 36 148 0.0 3.2 0.00 0.00 0.00 30 1018.1
20260906133626 37 122 0.0 3.2 0.00 0.00 0.00 30 1018.2
20260906133135 36 1 0.0 1.6 0.00 0.00 0.00 30 1018.2
20260906132627 36 0 0.0 4.8 0.00 0.00 0.00 32 1018.3
20260906132124 36 317 0.0 6.4 0.00 0.00 0.00 31 1018.1
20260906131627 37 326 4.8 6.4 0.00 0.00 0.00 30 1018.2
20260906131124 37 68 0.0 3.2 0.00 0.00 0.00 30 1018.5
20260906130626 37 126 0.0 3.2 0.00 0.00 0.00 30 1018.4
20260906130126 37 159 0.0 4.8 0.00 0.00 0.00 30 1018.6
20260906125624 37 237 0.0 4.8 0.00 0.00 0.00 30 1018.4
20260906125124 37 162 0.0 1.6 0.00 0.00 0.00 29 1018.4
20260906124627 37 124 0.0 1.6 0.00 0.00 0.00 30 1018.4
20260906124125 36 113 0.0 1.6 0.00 0.00 0.00 31 1018.5
20260906123624 36 123 0.0 1.6 0.00 0.00 0.00 31 1018.4
20260906122626 36 315 0.0 4.8 0.00 0.00 0.00 32 1018.6
20260906122124 36 208 1.6 1.6 0.00 0.00 0.00 32 1018.5
20260906121626 36 142 0.0 1.6 0.00 0.00 0.00 34 1018.7
20260906121123 36 213 0.0 1.6 0.00 0.00 0.00 32 1018.6
20260906120627 36 165 0.0 1.6 0.00 0.00 0.00 33 1018.8
20260906120126 36 79 0.0 1.6 0.00 0.00 0.00 33 1018.6
20260906115624 36 132 0.0 1.6 0.00 0.00 0.00 34 1018.7
20260906115126 36 133 0.0 3.2 0.00 0.00 0.00 34 1018.6
20260906114127 36 181 0.0 1.6 0.00 0.00 0.00 31 1018.7
20260906113627 35 148 0.0 3.2 0.00 0.00 0.00 33 1018.9
20260906112624 35 354 0.0 1.6 0.00 0.00 0.00 33 1018.9
20260906112123 34 356 0.0 4.8 0.00 0.00 0.00 35 1019.0
20260906111628 35 312 1.6 4.8 0.00 0.00 0.00 35 1019.0
20260906110109 33 314 1.6 4.8 0.00 0.00 0.00 38 1019.0
20260906105609 33 316 0.0 4.8 0.00 0.00 0.00 38 1019.1
20260906105100 34 100 0.0 1.6 0.00 0.00 0.00 35 1019.2
20260906104555 33 63 0.0 1.6 0.00 0.00 0.00 37 1019.6
20260906104050 33 3 0.0 1.6 0.00 0.00 0.00 38 1019.4
20260906103547 33 4 0.0 1.6 0.00 0.00 0.00 39 1019.4
20260906103042 32 323 0.0 3.2 0.00 0.00 0.00 38 1019.5
20260906102040 32 313 3.2 6.4 0.00 0.00 0.00 39 1019.6
20260906101535 32 331 0.0 3.2 0.00 0.00 0.00 40 1019.5
20260906101029 32 316 0.0 3.2 0.00 0.00 0.00 41 1019.8
20260906100527 32 317 1.6 3.2 0.00 0.00 0.00 39 1019.6
20260906100027 32 138 0.0 1.6 0.00 0.00 0.00 40 1019.5
20260906095526 32 138 0.0 1.6 0.00 0.00 0.00 37 1019.6
20260906095024 32 140 0.0 1.6 0.00 0.00 0.00 40 1019.9
20260906094527 32 285 0.0 1.6 0.00 0.00 0.00 39 1019.8
20260906094018 31 311 0.0 1.6 0.00 0.00 0.00 45 1020.1
20260906093517 31 311 0.0 3.2 0.00 0.00 0.00 47 1019.8
20260906093014 31 311 3.2 3.2 0.00 0.00 0.00 45 1019.8
20260906092508 31 324 0.0 3.2 0.00 0.00 0.00 45 1020.0
20260906092002 31 92 0.0 1.6 0.00 0.00 0.00 46 1019.7
20260906090955 30 121 0.0 1.6 0.00 0.00 0.00 48 1019.8
20260906090450 30 121 0.0 1.6 0.00 0.00 0.00 48 1020.0
20260906085948 30 122 0.0 0.0 0.00 0.00 0.00 52 1020.2
20260906084939 28 122 0.0 1.6 0.00 0.00 0.00 51 1019.9
20260906083942 27 122 0.0 3.2 0.00 0.00 0.00 57 1020.2
20260906083439 27 131 0.0 3.2 0.00 0.00 0.00 57 1020.0
20260906082436 27 308 0.0 1.6 0.00 0.00 0.00 55 1020.0
20260906081943 26 308 0.0 3.2 0.00 0.00 0.00 56 1020.1
20260906080438 26 325 1.6 3.2 0.00 0.00 0.00 58 1020.2
20260906075944 26 314 1.6 3.2 0.00 0.00 0.00 58 1020.1
20260906075436 25 308 0.0 3.2 0.00 0.00 0.00 63 1020.1
20260906074937 25 303 1.6 1.6 0.00 0.00 0.00 62 1020.2
20260906073438 24 303 0.0 1.6 0.00 0.00 0.00 62 1019.9
20260906072938 24 303 0.0 0.0 0.00 0.00 0.00 65 1019.8
20260906072437 24 303 0.0 0.0 0.00 0.00 0.00 63 1019.9
20260906071936 23 303 0.0 0.0 0.00 0.00 0.00 66 1020.1
20260906071438 22 303 0.0 0.0 0.00 0.00 0.00 69 1020.0
20260906070439 22 303 0.0 0.0 0.00 0.00 0.00 71 1020.0
20260906065938 21 303 0.0 0.0 0.00 0.00 0.00 76 1019.8
20260906064939 20 303 0.0 0.0 0.00 0.00 0.00 77 1019.9
20260906063923 20 303 0.0 0.0 0.00 0.00 0.00 77 1019.6
20260906063426 20 303 0.0 0.0 0.00 0.00 0.00 78 1019.7
20260906062424 20 303 0.0 0.0 0.00 0.00 0.00 77 1019.9
20260906061924 20 303 0.0 0.0 0.00 0.00 0.00 76 1019.5
20260906060930 20 303 0.0 0.0 0.00 0.00 0.00 76 1019.7
20260906060423 18 303 0.0 0.0 0.00 0.00 0.00 79 1019.6
20260906055924 18 303 0.0 0.0 0.00 0.00 0.00 80 1019.6
20260906055423 18 303 0.0 0.0 0.00 0.00 0.00 81 1019.6
20260906054923 17 303 0.0 0.0 0.00 0.00 0.00 82 1019.7
20260906054422 17 303 0.0 0.0 0.00 0.00 0.00 88 1019.5
20260906053924 16 303 0.0 0.0 0.00 0.00 0.00 89 1019.4
20260906053422 16 303 0.0 0.0 0.00 0.00 0.00 89 1019.5
20260906052924 16 303 0.0 0.0 0.00 0.00 0.00 89 1019.4
20260906052423 16 303 0.0 0.0 0.00 0.00 0.00 88 1019.5
20260906051923 16 303 0.0 0.0 0.00 0.00 0.00 88 1019.5
20260906051423 16 303 0.0 0.0 0.00 0.00 0.00 88 1019.5
20260906050427 16 303 0.0 0.0 0.00 0.00 0.00 89 1019.4
20260906045926 16 303 0.0 0.0 0.00 0.00 0.00 88 1019.4
20260906045427 16 303 0.0 0.0 0.00 0.00 0.00 88 1019.4
20260906043927 16 303 0.0 0.0 0.00 0.00 0.00 88 1019.2
20260906043425 16 303 0.0 0.0 0.00 0.00 0.00 88 1019.4
20260906042924 16 303 0.0 0.0 0.00 0.00 0.00 88 1019.4
20260906042430 16 303 0.0 0.0 0.00 0.00 0.00 88 1019.3
20260906041411 16 303 0.0 1.6 0.00 0.00 0.00 89 1019.2
20260906040912 16 303 0.0 1.6 0.00 0.00 0.00 89 1019.1
20260906035859 16 303 0.0 0.0 0.00 0.00 0.00 89 1019.2
20260906035347 16 303 0.0 0.0 0.00 0.00 0.00 89 1019.0
20260906034838 16 303 0.0 0.0 0.00 0.00 0.00 89 1019.0
20260906034336 16 303 0.0 0.0 0.00 0.00 0.00 89 1019.0
20260906032838 16 303 0.0 0.0 0.00 0.00 0.00 89 1019.0
20260906032340 16 303 0.0 0.0 0.00 0.00 0.00 89 1018.9
20260906031338 16 303 0.0 0.0 0.00 0.00 0.00 89 1019.1
20260906030340 16 303 0.0 0.0 0.00 0.00 0.00 88 1019.0
20260906025835 16 303 0.0 0.0 0.00 0.00 0.00 88 1019.0
20260906025323 16 303 0.0 0.0 0.00 0.00 0.00 88 1018.9
20260906024811 16 303 0.0 0.0 0.00 0.00 0.00 88 1018.9
20260906024311 16 303 0.0 0.0 0.00 0.00 0.00 88 1018.8
20260906023312 17 303 0.0 0.0 0.00 0.00 0.00 87 1018.8
20260906021729 17 303 0.0 1.6 0.00 0.00 0.00 87 1018.7
20260906020701 17 303 0.0 0.0 0.00 0.00 0.00 88 1018.7
20260906015640 17 303 0.0 0.0 0.00 0.00 0.00 87 1018.8
20260906014641 17 303 0.0 0.0 0.00 0.00 0.00 86 1018.9
20260906014123 17 303 0.0 0.0 0.00 0.00 0.00 86 1018.8
20260906013632 17 303 0.0 0.0 0.00 0.00 0.00 86 1018.4
20260906013128 17 303 0.0 0.0 0.00 0.00 0.00 85 1018.5
20260906012623 17 303 0.0 0.0 0.00 0.00 0.00 85 1018.8
20260906012123 17 303 0.0 0.0 0.00 0.00 0.00 85 1018.7
20260906011126 17 303 0.0 0.0 0.00 0.00 0.00 85 1018.7
20260906010625 17 303 0.0 0.0 0.00 0.00 0.00 85 1018.5
20260906010142 17 303 0.0 0.0 0.00 0.00 0.00 84 1018.7
20260906005627 17 303 0.0 1.6 0.00 0.00 0.00 84 1018.6
20260906005124 17 304 0.0 1.6 0.00 0.00 0.00 83 1018.5
20260906004624 17 304 0.0 0.0 0.00 0.00 0.00 83 1018.8
20260906004126 18 304 0.0 1.6 0.00 0.00 0.00 83 1018.7
20260906003129 18 304 0.0 0.0 0.00 0.00 0.00 83 1018.6
20260906002625 18 304 0.0 0.0 0.00 0.00 0.00 83 1018.7
20260906002123 18 304 0.0 0.0 0.00 0.00 0.00 83 1018.6
20260906001131 18 304 0.0 0.0 0.00 0.00 0.00 83 1018.5
20260906000627 18 304 0.0 0.0 0.00 0.00 0.00 83 1018.5
20260906000125 18 304 0.0 0.0 0.00 0.00 0.00 83 1018.5
20260905235622 18 304 0.0 0.0 0.00 0.00 0.00 83 1018.6
20260905235133 18 304 0.0 0.0 0.00 0.00 0.00 83 1018.6
20260905234627 18 304 0.0 0.0 0.00 0.00 0.00 82 1018.5
20260905234124 18 304 0.0 0.0 0.00 0.00 0.00 83 1018.7
20260905233622 18 304 0.0 0.0 0.00 0.00 0.00 82 1018.6
20260905233126 18 304 0.0 0.0 0.00 0.00 0.00 82 1018.7
20260905232625 18 304 0.0 0.0 0.00 0.00 0.00 81 1018.4
20260905232123 18 304 0.0 0.0 0.00 0.00 0.00 81 1018.4
20260905230128 19 304 0.0 0.0 0.00 0.00 0.00 79 1018.5
20260905225624 19 304 0.0 0.0 0.00 0.00 0.00 79 1018.9
20260905224628 19 304 0.0 0.0 0.00 0.00 0.00 78 1018.4
20260905224127 20 303 0.0 0.0 0.00 0.00 0.00 78 1018.6
20260905223622 20 304 0.0 0.0 0.00 0.00 0.00 78 1018.5
20260905223125 20 304 0.0 0.0 0.00 0.00 0.00 78 1018.5
20260905222628 20 303 0.0 0.0 0.00 0.00 0.00 78 1018.3
20260905222126 20 303 0.0 0.0 0.00 0.00 0.00 78 1018.3
20260905221629 20 303 0.0 0.0 0.00 0.00 0.00 78 1018.3
20260905220129 20 304 0.0 0.0 0.00 0.00 0.00 77 1018.3
20260905215627 20 304 0.0 3.2 0.00 0.00 0.00 76 1018.2
20260905215126 20 304 0.0 3.2 0.00 0.00 0.00 76 1018.1
20260905214628 20 304 0.0 1.6 0.00 0.00 0.00 76 1018.1
20260905214126 20 304 0.0 0.0 0.00 0.00 0.00 76 1018.2
20260905213624 21 304 0.0 0.0 0.00 0.00 0.00 75 1018.3
20260905213126 21 304 0.0 1.6 0.00 0.00 0.00 74 1017.9
20260905211627 21 304 0.0 1.6 0.00 0.00 0.00 74 1017.7
20260905211125 21 304 0.0 1.6 0.00 0.00 0.00 73 1018.0
20260905210623 21 304 0.0 0.0 0.00 0.00 0.00 72 1017.8
20260905205624 22 304 0.0 1.6 0.00 0.00 0.00 72 1017.9
20260905205123 22 304 0.0 1.6 0.00 0.00 0.00 71 1017.9
20260905204624 22 304 0.0 0.0 0.00 0.00 0.00 70 1018.0
20260905204133 22 304 0.0 0.0 0.00 0.00 0.00 70 1017.9
20260905203625 22 304 0.0 0.0 0.00 0.00 0.00 69 1017.8
20260905203126 22 304 0.0 0.0 0.00 0.00 0.00 69 1018.0
20260905202625 22 304 0.0 0.0 0.00 0.00 0.00 68 1017.8
20260905202121 22 304 0.0 0.0 0.00 0.00 0.00 68 1017.6
20260905201624 22 304 0.0 0.0 0.00 0.00 0.00 68 1017.7
20260905201109 23 304 0.0 0.0 0.00 0.00 0.00 68 1017.8
20260905200609 23 304 0.0 0.0 0.00 0.00 0.00 68 1017.9
20260905200059 23 304 0.0 0.0 0.00 0.00 0.00 68 1017.8
20260905195547 23 304 0.0 0.0 0.00 0.00 0.00 68 1017.8
20260905194553 23 304 0.0 0.0 0.00 0.00 0.00 67 1017.7
20260905194043 23 304 0.0 0.0 0.00 0.00 0.00 67 1017.8
20260905193040 23 304 0.0 0.0 0.00 0.00 0.00 66 1017.5
20260905192536 23 304 0.0 0.0 0.00 0.00 0.00 66 1017.6
20260905192039 23 305 0.0 0.0 0.00 0.00 0.00 66 1017.3
20260905190537 24 305 0.0 0.0 0.00 0.00 0.00 64 1017.2
20260905190051 25 305 0.0 0.0 0.00 0.00 0.00 63 1017.3
20260905185533 25 305 0.0 1.6 0.00 0.00 0.00 62 1017.2
20260905185037 25 305 0.0 1.6 0.00 0.00 0.00 61 1017.2
20260905184522 26 305 0.0 0.0 0.00 0.00 0.00 60 1017.2
20260905184022 26 305 0.0 1.6 0.00 0.00 0.00 58 1017.2
20260905183532 26 305 0.0 1.6 0.00 0.00 0.00 57 1017.1
20260905183013 27 306 1.6 1.6 0.00 0.00 0.00 56 1017.0
20260905182516 27 307 0.0 1.6 0.00 0.00 0.00 55 1017.0
20260905182009 28 306 0.0 3.2 0.00 0.00 0.00 53 1016.8
20260905181500 28 306 0.0 3.2 0.00 0.00 0.00 52 1016.7
20260905180503 28 312 3.2 6.4 0.00 0.00 0.00 50 1016.7
20260905175951 28 314 3.2 6.4 0.00 0.00 0.00 49 1016.6
20260905175445 29 312 1.6 6.4 0.00 0.00 0.00 49 1016.6
20260905174948 29 311 4.8 6.4 0.00 0.00 0.00 49 1016.4
20260905174434 29 315 4.8 6.4 0.00 0.00 0.00 48 1016.2
20260905173441 29 318 3.2 6.4 0.00 0.00 0.00 47 1016.3
20260905172936 30 324 3.2 11.3 0.00 0.00 0.00 46 1016.3
20260905172439 30 323 9.7 11.3 0.00 0.00 0.00 46 1016.0
20260905170422 30 312 3.2 9.7 0.00 0.00 0.00 48 1016.1
20260905165421 31 303 6.4 11.3 0.00 0.00 0.00 48 1015.9
20260905164925 31 329 0.0 9.7 0.00 0.00 0.00 49 1015.9
20260905164424 31 325 8.0 9.7 0.00 0.00 0.00 48 1015.9
20260905163922 31 349 0.0 9.7 0.00 0.00 0.00 48 1016.0
20260905163427 31 320 4.8 14.5 0.00 0.00 0.00 47 1015.9
20260905162935 31 332 4.8 14.5 0.00 0.00 0.00 47 1015.6
20260905162422 31 3 0.0 9.7 0.00 0.00 0.00 46 1015.7
20260905161923 31 341 3.2 9.7 0.00 0.00 0.00 45 1015.8
20260905161424 32 333 0.0 9.7 0.00 0.00 0.00 45 1015.6
20260905160922 32 332 1.6 12.9 0.00 0.00 0.00 45 1015.7
20260905160422 32 320 1.6 12.9 0.00 0.00 0.00 45 1015.7
20260905155924 32 329 4.8 11.3 0.00 0.00 0.00 45 1015.7
20260905155421 32 314 3.2 11.3 0.00 0.00 0.00 44 1015.6
20260905154424 32 300 0.0 12.9 0.00 0.00 0.00 45 1015.5
20260905153922 32 311 8.0 17.7 0.00 0.00 0.00 44 1015.6
20260905153424 32 318 0.0 17.7 0.00 0.00 0.00 44 1015.6
20260905152428 32 313 4.8 14.5 0.00 0.00 0.00 43 1015.5
20260905151925 32 326 4.8 14.5 0.00 0.00 0.00 42 1015.7
20260905151410 32 315 3.2 12.9 0.00 0.00 0.00 41 1015.6
20260905150910 32 322 3.2 14.5 0.00 0.00 0.00 42 1015.6
20260905150413 32 329 3.2 14.5 0.00 0.00 0.00 41 1015.5
20260905145858 32 318 8.0 12.9 0.00 0.00 0.00 41 1015.7